COSMOS 2251 DEB, 34726

Orbit data source: Space-Track

COSMOS 2251 DEB, 34726 is space debris in LEO originally from a launch on Wed, 16 Jun 1993 UTC launched from the Plesetsk Missile And Space Complex (PKMTR). The debris from Iridium 33, an American commercial communications satellite, has been tracked extensively since its accidental collision with the defunct Russian satellite Cosmos 2251 in 2009. This event, occurring at high speed in low Earth orbit (LEO), generated thousands of pieces of space debris, significantly increasing the risk of further collisions. The Iridium 33 debris cloud has impacted space traffic management and orbital debris mitigation strategies, making it a subject of ongoing study in space situational awareness.

Loading next visibility...
Identifier
34726, 1993-036YU
Orbit
LEO
Country
Flag of CISCIS
Related business
Manufacturer
Unknown
Mission
Spacecraft
Bus & Motor
Unknown
Mass
Unknown
Launch date (UTC)
1993-06-16 (33 years ago)
Launch vehicle
Unknown
Launch site
Plesetsk Missile And Space Complex (PKMTR)
Object type
Payload
Rocket body
Debris
Shape & HBR
Unknown shape, 0.1 m
Radar Cross Section
Medium (>0.1 m² and <1 m²)

Expand to show TLE details & history
Last TLE update: 18 hours ago

TLE from 18 hours ago
0 COSMOS 2251 DEB
1 34726U 93036YU  26162.70493260  .00001448  00000-0  30245-3 0  9995
2 34726  74.0277   0.8841 0043200 104.8576 255.7380 14.60235276911436
Epoch: 2026-06-11T16:55Z
TLE epoch observation values (Epoch: 2026-06-11T16:55:06.176Z)
Latitude
-0.00009°
Longitude
-152.93656°
Altitude
702.704 km
Speed
7.501 km/s
True Right ascension
00h 03m 32s
True Declination
0° 00' 00"
Sunlit
Object was in daylight at epoch
Visualization orbit readout
Latitude
Unknown
Longitude
Unknown
Altitude
Unknown
Speed
Unknown
Apparent Right ascension
Unknown
Apparent Declination
Unknown
Sunlit
N/A
Visualization observer readout
Local Sidereal Time
21:01:18
Azimuth
Unknown
Elevation
Unknown
Doppler factor
Unknown
Orbital elements
Apogee altitude
720.547 km
Perigee altitude
659.478 km
Semi-major axis
7,068.149 km
Eccentricity
0.00432
Inclination
74.0277°
RAAN
0.8841°
Arg. of periapsis
104.8576°
True anomaly
255.25886°
Mean anomaly
255.738°
Eccentric anomaly
255.49837°
Mean motion
3.65245 °/min
Orbital period
98.56 mins
BSTAR
0.00030245

Documentation

Showing up to 5 results
|